Date_and_time,latitude,longitude,wind_speed,RelWindDirFrom,WindDirFrom,air_pressure,air_temperature,relative_humidity,Temp,platform_speed_wrt_ground,air_pressure_at_mean_sea_level,platform_orientation
2018-09-24 23:50,50.63043,-96.98075,3.8,6.8,276,984.65,7.2,99,10.27,0.0,1011.68,263.5
2018-09-25 00:00,50.6304283333333,-96.9807483333333,3.2,5.3,268,984.80,7.0,99,10.30,0.0,1011.86,360.0
2018-09-25 00:10,50.6304283333333,-96.9807483333333,4.5,8.3,272,984.91,6.9,99,10.37,0.0,1011.98,360.0
2018-09-25 00:20,50.6304283333333,-96.9807483333333,3.2,5.4,280,985.04,6.8,100,10.38,0.0,1012.11,360.0
2018-09-25 00:30,50.63043,-96.9807483333333,3.2,4.9,280,985.14,6.8,100,10.37,0.0,1012.21,360.0
2018-09-25 00:40,50.6304283333333,-96.9807466666667,3.2,5.5,277,985.22,6.8,100,10.33,0.0,1012.30,360.0
2018-09-25 00:50,50.6304483333333,-96.9807416666667,3.6,5.8,277,985.24,6.8,100,10.31,0.0,1012.32,360.0
2018-09-25 01:00,50.63042,-96.9807483333333,3.4,5.3,276,985.26,6.7,100,10.31,0.0,1012.35,194.5
2018-09-25 01:10,50.6304216666667,-96.9807333333333,3.2,5.3,278,985.31,6.6,100,10.31,0.0,1012.41,194.5
2018-09-25 01:20,50.6304383333333,-96.9807483333333,3.5,6.1,274,985.42,6.6,100,10.32,0.0,1012.52,194.5
2018-09-25 01:30,50.6304333333333,-96.98074,3.5,5.3,268,985.38,6.6,100,10.32,0.0,1012.48,194.5
2018-09-25 01:40,50.630435,-96.9807383333333,3.3,6.2,273,985.35,6.6,100,10.33,0.0,1012.45,194.5
2018-09-25 01:50,50.6304333333333,-96.9807433333333,4.0,6.4,282,985.27,6.6,100,10.33,0.0,1012.37,194.5
2018-09-25 02:00,50.6304366666667,-96.9807466666667,4.1,6.7,281,985.28,6.6,100,10.33,0.0,1012.40,14.5
2018-09-25 02:10,50.6304383333333,-96.9807466666667,4.4,7.0,279,985.36,6.5,100,10.31,0.0,1012.48,14.5
2018-09-25 02:20,50.6304366666667,-96.9807483333333,4.5,7.4,284,985.43,6.4,100,10.29,0.0,1012.56,14.5
2018-09-25 02:30,50.630435,-96.9807483333333,4.8,7.3,284,985.51,6.3,100,10.28,0.0,1012.65,14.5
2018-09-25 02:40,50.6304366666667,-96.9807483333333,4.1,7.2,282,985.60,6.3,100,10.25,0.0,1012.75,14.5
2018-09-25 02:50,50.6304366666667,-96.9807483333333,4.7,7.2,279,985.68,6.2,100,10.23,0.0,1012.83,14.5
2018-09-25 03:00,50.6304366666667,-96.9807483333333,5.9,9.7,286,985.70,6.2,100,10.21,0.0,1012.85,360.0
2018-09-25 03:10,50.630435,-96.9807483333333,4.7,8.7,292,985.75,6.2,100,10.18,0.0,1012.91,360.0
2018-09-25 03:20,50.630435,-96.9807483333333,5.4,9.1,294,985.81,6.1,100,10.14,0.0,1012.98,360.0
2018-09-25 03:30,50.6304333333333,-96.9807483333333,5.1,8.5,295,985.86,6.0,100,10.13,0.0,1013.03,360.0
2018-09-25 03:40,50.6304333333333,-96.9807483333333,3.8,6.4,290,985.92,6.0,100,10.16,0.0,1013.09,360.0
2018-09-25 03:50,50.63042,-96.98075,4.4,7.1,281,985.98,6.0,100,10.15,0.0,1013.16,360.0
2018-09-25 04:00,50.63043,-96.9807616666667,4.4,7.6,287,985.96,6.0,100,10.12,0.0,1013.14,311.7
2018-09-25 04:10,50.63043,-96.98076,4.7,7.4,290,985.95,6.0,100,10.11,0.0,1013.14,311.7
2018-09-25 04:20,50.63043,-96.980755,4.1,7.5,287,986.02,6.0,100,10.14,0.0,1013.21,311.7
2018-09-25 04:30,50.6304283333333,-96.980755,3.6,5.8,285,986.09,5.9,100,10.26,0.0,1013.29,311.7
2018-09-25 04:40,50.63043,-96.980755,4.1,6.4,285,986.07,5.9,100,10.31,0.0,1013.27,311.7
2018-09-25 04:50,50.6304283333333,-96.980755,4.0,5.8,278,986.04,5.9,99,10.32,0.0,1013.25,311.7
2018-09-25 05:00,50.6304383333333,-96.9807383333333,4.9,8.1,274,986.13,5.8,99,10.38,0.0,1013.33,12.6
2018-09-25 05:10,50.6304366666667,-96.980745,4.2,7.1,281,986.18,5.8,99,10.40,0.0,1013.39,12.6
2018-09-25 05:20,50.6304333333333,-96.9807483333333,3.6,6.1,284,986.15,5.8,99,10.42,0.0,1013.37,12.6
2018-09-25 05:30,50.63043,-96.9807466666667,4.3,7.2,295,986.13,5.8,99,10.43,0.0,1013.35,12.6
2018-09-25 05:40,50.6304266666667,-96.9807433333333,4.1,6.9,290,986.16,5.8,99,10.37,0.0,1013.39,12.6
2018-09-25 05:50,50.6304033333333,-96.980735,3.9,6.9,286,986.20,5.7,99,10.27,0.0,1013.43,12.6
2018-09-25 06:00,50.630425,-96.9807516666667,3.6,5.7,282,986.20,5.7,99,10.19,0.0,1013.43,142.0
2018-09-25 06:10,50.6304266666667,-96.9807516666667,4.1,6.4,286,986.17,5.6,99,10.13,0.0,1013.40,142.0
2018-09-25 06:20,50.6304316666667,-96.980755,3.4,5.7,285,986.22,5.6,99,10.11,0.0,1013.46,142.0
2018-09-25 06:30,50.6304283333333,-96.9807533333333,3.8,5.4,276,986.23,5.5,99,10.12,0.0,1013.47,142.0
2018-09-25 06:40,50.6304066666667,-96.98073,4.0,5.9,270,986.24,5.5,99,10.09,0.0,1013.48,142.0
2018-09-25 06:50,50.63043,-96.9807516666667,3.2,6.0,272,986.24,5.4,99,10.16,0.0,1013.49,142.0
2018-09-25 07:00,50.6304266666667,-96.980745,3.5,5.6,271,986.34,5.4,99,10.17,0.0,1013.60,90.0
2018-09-25 07:10,50.63044,-96.9807633333333,3.6,6.0,272,986.34,5.4,99,10.16,0.0,1013.60,90.0
2018-09-25 07:20,50.6304416666667,-96.9807566666667,4.6,6.6,269,986.31,5.3,99,10.14,0.0,1013.57,90.0
2018-09-25 07:30,50.6304316666667,-96.98076,4.3,6.9,268,986.23,5.2,99,10.22,0.0,1013.50,90.0
2018-09-25 07:40,50.6304233333333,-96.9807516666667,3.9,5.8,272,986.20,5.2,99,10.22,0.0,1013.46,90.0
2018-09-25 07:50,50.6304283333333,-96.9807533333333,4.0,6.6,269,986.16,5.2,99,10.23,0.0,1013.43,90.0
2018-09-25 08:00,50.63043,-96.980755,4.6,6.2,267,986.13,5.1,99,10.25,0.0,1013.41,211.1
2018-09-25 08:10,50.6304316666667,-96.9807566666667,3.8,6.4,266,986.12,5.0,99,10.22,0.0,1013.40,211.1
2018-09-25 08:20,50.63043,-96.9807533333333,3.2,5.7,257,986.18,4.8,99,10.15,0.0,1013.47,211.1
2018-09-25 08:30,50.6304316666667,-96.9807516666667,3.6,5.1,253,986.20,4.7,99,10.15,0.0,1013.50,211.1
2018-09-25 08:40,50.63043,-96.98075,4.0,5.8,262,986.16,4.6,99,10.14,0.0,1013.47,211.1
2018-09-25 08:50,50.6304283333333,-96.9807483333333,4.4,7.3,268,986.21,4.5,99,10.20,0.0,1013.53,211.1
2018-09-25 09:00,50.6304283333333,-96.9807466666667,4.5,6.4,265,986.27,4.4,99,10.23,0.0,1013.59,90.0
2018-09-25 09:10,50.63043,-96.980745,3.9,5.9,262,986.34,4.3,99,10.32,0.0,1013.68,90.0
2018-09-25 09:20,50.63043,-96.980745,4.6,6.5,251,986.44,4.1,99,10.36,0.0,1013.79,90.0
2018-09-25 09:30,50.63042,-96.980755,4.8,6.5,252,986.57,4.0,100,10.41,0.0,1013.93,90.0
2018-09-25 09:40,50.63042,-96.9807466666667,4.5,6.5,258,986.59,4.1,100,10.43,0.0,1013.95,90.0
2018-09-25 09:50,50.6304333333333,-96.98074,4.2,6.2,263,986.60,4.2,100,10.41,0.0,1013.96,90.0
2018-09-25 10:00,50.6304316666667,-96.9807416666667,4.2,6.1,264,986.63,4.3,99,10.37,0.0,1013.99,360.0
2018-09-25 10:10,50.6303983333333,-96.9807366666667,4.3,7.2,266,986.63,4.5,99,10.37,0.0,1013.99,360.0
2018-09-25 10:20,50.6304366666667,-96.9807466666667,4.3,5.9,266,986.64,4.6,99,10.38,0.0,1013.99,360.0
2018-09-25 10:30,50.6304283333333,-96.9807466666667,4.1,6.4,272,986.50,4.8,99,10.36,0.0,1013.85,360.0
2018-09-25 10:40,50.6304266666667,-96.9807466666667,3.9,6.5,281,986.43,4.9,99,10.27,0.0,1013.78,360.0
2018-09-25 10:50,50.6304283333333,-96.9807483333333,4.1,6.7,281,986.38,4.9,99,10.33,0.0,1013.72,360.0
2018-09-25 11:00,50.6304283333333,-96.98075,3.5,5.7,277,986.37,4.9,99,10.33,0.0,1013.72,90.0
2018-09-25 11:10,50.63043,-96.98075,3.7,5.8,281,986.33,4.9,99,10.39,0.0,1013.69,90.0
2018-09-25 11:20,50.63043,-96.98075,3.7,6.3,274,986.43,4.9,99,10.43,0.0,1013.80,90.0
2018-09-25 11:30,50.63043,-96.98075,3.9,5.8,269,986.58,4.9,99,10.42,0.0,1013.94,90.0
2018-09-25 11:40,50.63043,-96.98075,3.5,5.9,250,986.67,5.0,99,10.38,0.0,1014.03,90.0
2018-09-25 11:50,50.63043,-96.98075,3.5,4.8,247,986.72,5.0,99,10.36,0.0,1014.08,90.0
2018-09-25 12:00,50.63043,-96.98075,3.8,5.9,244,986.80,4.9,99,10.32,0.0,1014.15,270.0
2018-09-25 12:10,50.6304666666667,-96.9807583333333,4.4,6.4,244,986.86,4.9,99,10.37,0.0,1014.21,270.0
2018-09-25 12:20,50.6304416666667,-96.9807483333333,4.6,6.3,247,986.95,5.0,99,10.41,0.0,1014.29,270.0
2018-09-25 12:30,50.6304366666667,-96.9807483333333,4.6,7.1,249,986.97,4.9,99,10.42,0.0,1014.31,270.0
2018-09-25 12:40,50.6304216666667,-96.980755,4.2,6.3,256,986.96,4.9,99,10.42,0.0,1014.29,270.0
2018-09-25 12:50,50.6304466666667,-96.980775,4.2,5.9,261,986.86,5.0,99,10.42,0.0,1014.19,270.0
2018-09-25 13:00,50.62815,-96.9734483333333,3.8,8.1,250,986.77,5.2,99,10.41,1.9,1014.09,116.2
2018-09-25 13:10,50.6264483333333,-96.9253866666667,2.4,4.7,77,986.72,5.5,99,11.01,11.0,1014.03,116.2
2018-09-25 13:20,50.6328666666667,-96.88626,4.7,14.9,358,986.70,5.9,97,11.30,9.2,1013.99,116.2
2018-09-25 13:30,50.6573116666667,-96.8619483333333,12.6,15.7,342,986.47,6.0,95,11.62,10.4,1013.74,116.2
2018-09-25 13:40,50.6834466666667,-96.83629,14.3,17.6,343,986.35,6.2,93,11.91,11.1,1013.60,116.2
2018-09-25 13:50,50.7093733333333,-96.8105016666667,16.9,20.2,347,986.13,6.5,85,12.19,11.0,1013.37,116.2
2018-09-25 14:00,50.7351966666667,-96.7846033333333,16.9,20.1,348,986.07,6.7,84,12.40,11.0,1013.29,49.8
2018-09-25 14:10,50.7609616666667,-96.758695,18.5,21.6,346,986.10,6.8,83,12.48,11.0,1013.32,49.8
2018-09-25 14:20,50.7839966666667,-96.735455,18.2,21.2,346,986.02,6.8,83,12.52,9.8,1013.24,49.8
2018-09-25 14:30,50.7851933333333,-96.7383583333333,13.7,18.8,313,986.19,7.1,82,12.52,0.8,1013.40,49.8
2018-09-25 14:40,50.8057416666667,-96.726905,17.4,21.3,335,986.12,6.9,82,12.52,7.8,1013.33,49.8
2018-09-25 14:50,50.8337016666667,-96.708105,18.2,21.1,348,985.86,6.6,83,12.49,10.9,1013.07,49.8
2018-09-25 15:00,50.86161,-96.68902,17.8,20.4,346,985.95,6.7,83,12.58,10.9,1013.14,38.5
2018-09-25 15:10,50.88978,-96.6699883333333,16.5,20.1,340,986.16,6.7,81,12.61,11.0,1013.33,38.5
2018-09-25 15:20,50.918155,-96.6512633333333,16.0,19.8,339,986.25,6.9,78,12.56,11.1,1013.42,38.5
2018-09-25 15:30,50.9467483333333,-96.6328516666667,14.4,17.1,337,986.42,6.9,78,12.54,11.1,1013.58,38.5
2018-09-25 15:40,50.9753716666667,-96.6143266666667,13.8,16.5,346,986.37,7.0,73,12.52,11.1,1013.51,38.5
2018-09-25 15:50,50.9939416666667,-96.6020333333333,11.3,17.2,344,986.54,7.1,75,12.56,7.2,1013.67,38.5
2018-09-25 16:00,51.0006366666667,-96.5974766666667,7.6,10.1,319,986.79,7.0,72,12.58,2.6,1013.93,32.4
2018-09-25 16:10,51.007295,-96.59261,6.8,9.1,312,986.79,7.0,73,12.60,2.6,1013.92,32.4
2018-09-25 16:20,51.0139783333333,-96.5877183333333,7.0,8.9,315,986.75,7.1,71,12.62,2.6,1013.87,32.4
2018-09-25 16:30,51.0224866666667,-96.5837216666667,6.6,8.8,316,986.61,7.2,71,12.61,3.2,1013.73,32.4
2018-09-25 16:40,51.0224316666667,-96.5834283333333,5.2,7.3,280,986.51,7.7,69,12.58,0.1,1013.62,32.4
2018-09-25 16:50,51.0224266666667,-96.58344,4.7,7.0,284,986.54,7.9,66,12.60,0.0,1013.63,32.4
2018-09-25 17:00,51.0223683333333,-96.5834466666667,4.1,6.4,296,986.48,8.1,66,12.62,0.0,1013.56,23.8
2018-09-25 17:10,51.0224433333333,-96.583455,3.8,6.1,284,986.46,8.2,63,12.66,0.0,1013.52,23.8
2018-09-25 17:20,51.02252,-96.5834116666667,4.1,6.6,264,986.46,8.2,63,12.73,0.0,1013.53,23.8
2018-09-25 17:30,51.0318716666667,-96.5803266666667,2.9,10.2,292,986.47,8.3,64,12.78,3.4,1013.53,23.8
2018-09-25 17:40,51.0604233333333,-96.559665,9.3,12.3,17,986.31,8.0,64,12.73,11.3,1013.38,23.8
2018-09-25 17:50,51.083585,-96.5272316666667,8.6,11.3,35,986.27,8.0,65,12.71,11.1,1013.34,23.8
2018-09-25 18:00,51.1045933333333,-96.4900116666667,8.0,9.6,50,986.20,8.0,67,12.74,11.3,1013.26,27.2
2018-09-25 18:10,51.1212016666667,-96.461255,5.2,9.5,21,986.17,8.0,65,12.63,8.8,1013.23,27.2
2018-09-25 18:20,51.1266683333333,-96.4526633333333,4.9,6.7,268,986.23,7.9,65,12.76,2.8,1013.29,27.2
2018-09-25 18:30,51.1304083333333,-96.4424116666667,4.3,5.8,237,986.20,10.5,55,12.85,2.7,1013.11,27.2
2018-09-25 18:40,51.1351716666667,-96.4331266666667,3.6,6.1,211,986.19,11.4,55,12.88,2.7,1013.05,27.2
2018-09-25 18:50,51.1417583333333,-96.4210266666667,4.5,7.9,192,986.02,11.3,58,12.84,3.6,1012.86,27.2
2018-09-25 19:00,51.1419383333333,-96.42077,7.0,9.0,221,985.89,9.3,62,12.67,0.1,1012.83,38.1
2018-09-25 19:10,51.1419633333333,-96.4208066666667,8.0,10.2,218,985.81,8.8,63,12.64,0.0,1012.76,38.1
2018-09-25 19:20,51.1434416666667,-96.427355,9.4,15.3,226,985.71,8.8,63,12.70,1.6,1012.66,38.1
2018-09-25 19:30,51.164905,-96.412555,1.1,14.9,220,985.78,8.9,62,12.90,8.4,1012.74,38.1
2018-09-25 19:40,51.1809366666667,-96.385425,3.6,11.5,162,985.70,9.2,62,13.05,8.4,1012.64,38.1
2018-09-25 19:50,51.18097,-96.3854383333333,10.7,13.5,205,985.50,9.0,64,13.09,0.0,1012.45,38.1
2018-09-25 20:00,51.1809533333333,-96.38544,10.2,11.8,202,985.35,8.9,64,13.12,0.0,1012.30,38.0
2018-09-25 20:10,51.1809033333333,-96.38541,9.6,11.6,210,985.34,9.1,64,13.12,0.0,1012.28,38.0
2018-09-25 20:20,51.180965,-96.38546,9.1,11.2,203,985.37,9.1,65,13.10,0.0,1012.20,38.0
2018-09-25 20:30,51.1809366666667,-96.3854466666667,8.2,10.8,200,985.34,8.9,65,13.08,0.0,1012.12,38.0
2018-09-25 20:40,51.1809666666667,-96.3854716666667,8.4,9.5,211,985.31,9.1,64,13.06,0.0,1012.09,38.0
2018-09-25 20:50,51.1809816666667,-96.38551,7.0,8.5,197,985.28,9.1,63,13.01,0.0,1012.15,38.0
2018-09-25 21:00,51.1809666666667,-96.3855033333333,5.9,8.8,195,985.26,9.4,61,12.99,0.0,1012.14,40.6
2018-09-25 21:10,51.1806466666667,-96.3857633333333,5.7,7.1,207,985.26,9.5,61,13.04,0.1,1012.14,40.6
2018-09-25 21:20,51.1639533333333,-96.4138483333333,13.9,17.6,219,984.78,9.5,62,13.05,8.7,1011.64,40.6
2018-09-25 21:30,51.14321,-96.4287533333333,14.6,18.5,201,984.67,9.4,65,13.07,8.2,1011.51,40.6
2018-09-25 21:40,51.1384216666667,-96.4277883333333,8.8,17.1,202,984.98,9.4,66,12.97,1.7,1011.84,40.6
2018-09-25 21:50,51.1189683333333,-96.4633583333333,16.7,18.5,212,984.50,9.4,66,12.89,10.7,1011.35,40.6
2018-09-25 22:00,51.0994633333333,-96.4996116666667,16.9,19.0,210,984.46,9.4,69,12.81,10.8,1011.31,229.4
2018-09-25 22:10,51.07789,-96.5315783333333,18.5,21.6,205,984.33,9.4,70,12.93,10.6,1011.17,229.4
2018-09-25 22:20,51.052445,-96.5564883333333,20.5,23.2,209,984.14,9.6,70,12.93,10.8,1010.98,229.4
2018-09-25 22:30,51.0268116666667,-96.5802816666667,22.9,27.8,214,984.00,9.6,73,12.96,10.7,1010.83,229.4
2018-09-25 22:40,51.0340216666667,-96.5883866666667,11.6,25.6,223,984.95,9.3,79,12.94,3.2,1011.82,229.4
2018-09-25 22:50,51.0652416666667,-96.5963033333333,5.4,8.0,265,985.21,9.2,82,12.85,11.4,1012.07,229.4
2018-09-25 23:00,51.0967,-96.6029216666667,4.5,6.2,259,985.09,9.5,81,12.69,11.4,1011.93,238.4
2018-09-25 23:10,51.1282166666667,-96.60922,4.3,8.1,287,985.09,9.6,81,12.70,11.4,1011.92,238.4
2018-09-25 23:20,51.1602566666667,-96.607085,6.3,8.8,321,985.01,9.7,78,12.70,11.5,1011.84,238.4
2018-09-25 23:30,51.1929466666667,-96.5966833333333,5.7,7.5,355,984.92,9.6,78,12.70,12.0,1011.76,238.4
